GW2214 Weather Reports


time (UTC)temp
C
wind
direction
speed
KPH
gust
KPH
rain 1hr
cm
rain 24hr
cm
rain mn
cm
humidity
%
barometer
mb
20260505124557 18 204 0.0 0.0 0.00 0.00 0.00 65 999.5
20260505123052 17 208 0.0 0.0 0.00 0.00 0.00 66 999.3
20260505121550 17 195 0.0 0.0 0.00 0.00 0.00 67 999.3
20260505120108 16 197 0.0 0.0 0.00 0.00 0.00 67 999.1
20260505114546 16 213 0.0 0.0 0.00 0.00 0.00 69 999.2
20260505113046 16 209 0.0 0.0 0.00 0.00 0.00 72 999.0
20260505111542 15 189 0.0 0.0 0.00 0.00 0.00 72 998.8
20260505101537 15 178 0.0 0.0 0.00 0.00 0.00 74 998.3
20260505100037 15 204 0.0 0.0 0.00 0.00 0.00 74 998.2
20260505094536 15 188 0.0 0.0 0.00 0.00 0.00 74 998.0
20260505093040 15 170 0.0 0.0 0.00 0.00 0.00 73 997.9
20260505091535 15 211 0.0 0.0 0.00 0.00 0.00 73 998.0
20260505090043 15 186 0.0 0.0 0.00 0.00 0.00 74 998.1
20260505084534 16 213 0.0 0.0 0.00 0.00 0.00 73 998.0
20260505083033 16 176 0.0 0.0 0.00 0.00 0.00 72 998.0
20260505081539 15 205 0.0 0.0 0.00 0.00 0.00 74 997.9
20260505080038 15 203 0.0 0.0 0.00 0.00 0.00 75 997.9
20260505074531 15 191 0.0 0.0 0.00 0.00 0.00 75 998.0
20260505073046 15 186 0.0 0.0 0.00 0.00 0.00 75 997.9
20260505071528 15 151 0.0 0.0 0.00 0.00 0.00 75 998.0
20260505070028 15 174 0.0 0.0 0.00 0.00 0.00 73 998.0
20260505064538 15 163 0.0 0.0 0.00 0.00 0.00 73 997.9
20260505063029 15 177 0.0 0.0 0.00 0.00 0.00 72 997.9
20260505061540 15 180 0.0 0.0 0.00 0.00 0.00 72 998.0
20260505060023 15 174 0.0 0.0 0.00 0.00 0.00 71 998.0
20260505054537 15 195 0.0 0.0 0.00 0.00 0.00 70 998.1
20260505053021 15 168 0.0 0.0 0.00 0.00 0.00 69 998.0
20260505051520 15 172 0.0 0.0 0.00 0.00 0.00 68 998.1
20260505041513 16 161 0.0 0.0 0.00 0.00 0.00 61 998.0
20260505040009 16 163 0.0 0.0 0.00 0.00 0.00 60 997.9
20260505034510 16 182 0.0 0.0 0.00 0.00 0.00 58 997.9
20260505033108 16 185 0.0 0.0 0.00 0.00 0.00 57 998.0
20260505031521 17 180 0.0 0.0 0.00 0.00 0.00 56 998.0
20260505030009 17 155 0.0 0.0 0.00 0.00 0.00 55 998.0
20260505024513 17 183 0.0 0.0 0.00 0.00 0.00 55 998.1
20260505023010 17 164 0.0 0.0 0.00 0.00 0.00 54 998.3
20260505021505 17 175 0.0 0.0 0.00 0.00 0.00 54 998.4
20260505020008 17 170 0.0 0.0 0.00 0.00 0.00 53 998.3
20260505014504 18 157 0.0 0.0 0.00 0.00 0.00 53 998.0
20260505013004 18 168 0.0 0.0 0.00 0.00 0.00 54 998.1
20260505011503 18 154 0.0 0.0 0.00 0.00 0.00 52 998.1
20260505010003 18 178 0.0 0.0 0.00 0.00 0.00 51 997.8
20260505004502 19 159 0.0 0.0 0.00 0.00 0.00 50 997.7
20260505003001 20 151 0.0 0.0 0.00 0.00 0.00 47 997.6
20260505001501 20 173 0.0 0.0 0.00 0.00 0.00 45 997.3
20260505000002 20 171 0.0 0.0 0.00 0.00 0.00 44 997.3
20260504234600 20 186 0.0 0.0 0.00 0.00 0.00 43 997.2
20260504233102 21 240 0.0 0.0 0.00 0.00 0.00 43 997.3
20260504231559 21 203 0.0 0.0 0.00 0.00 0.00 42 997.3
20260504230108 21 177 0.0 0.0 0.00 0.00 0.00 42 997.2
20260504224559 21 199 0.0 0.0 0.00 0.00 0.00 41 997.2
20260504223104 21 186 0.0 0.0 0.00 0.00 0.00 41 997.3
20260504221604 21 197 0.0 0.0 0.00 0.00 0.00 40 997.3
20260504220059 21 228 0.0 0.0 0.00 0.00 0.00 41 997.3
20260504214557 21 191 0.0 0.0 0.00 0.00 0.00 40 997.5
20260504213054 21 195 0.0 0.0 0.00 0.00 0.00 40 997.5
20260504211553 21 235 0.0 0.0 0.00 0.00 0.00 40 997.5
20260504210053 21 194 0.0 0.0 0.00 0.00 0.00 40 997.5
20260504204549 21 235 0.0 0.0 0.00 0.00 0.00 40 997.5
20260504203101 21 203 0.0 0.0 0.00 0.00 0.00 41 997.6
20260504201547 20 210 0.0 0.0 0.00 0.00 0.00 41 997.8
20260504200046 21 190 0.0 0.0 0.00 0.00 0.00 40 997.9
20260504194544 20 195 0.0 0.0 0.00 0.00 0.00 38 998.1
20260504193043 20 235 0.0 0.0 0.00 0.00 0.00 40 998.2
20260504191541 20 205 0.0 0.0 0.00 0.00 0.00 39 998.6
20260504190038 20 170 0.0 0.0 0.00 0.00 0.00 40 998.6
20260504184537 20 173 0.0 0.0 0.00 0.00 0.00 39 998.7
20260504183034 20 170 0.0 0.0 0.00 0.00 0.00 40 999.0
20260504181533 19 202 0.0 0.0 0.00 0.00 0.00 39 999.2
20260504180030 19 278 0.0 0.0 0.00 0.00 0.00 40 999.3
20260504174529 19 193 0.0 0.0 0.00 0.00 0.00 39 999.5
20260504173027 19 277 0.0 0.0 0.00 0.00 0.00 40 999.8
20260504171525 19 195 0.0 0.0 0.00 0.00 0.00 40 1000.0